Simultaneous Nadir Overpasses (SNOs) Predictions

Prediction of SNOs between GOES-15 and METOP-C Satellite Orbit:

Table of predicted SNOs for the next 14.0 days since TLE Epoch: 9/27/2019
Index Date Time (GOES-15) GOES-15 Lat,Lon METOP-C Lat,Lon Distance(km) Time Diff (sec)
1 09/29/2019 06:07:11 0.28,-127.63 -0.14,-129.41 203.44 80
2 09/30/2019 05:49:12 0.27,-127.59 0.98,-124.41 361.76 80
3 10/01/2019 18:05:23 -0.28,-127.57 0.03,-128.98 160.41 80
4 10/02/2019 17:47:24 -0.27,-127.53 -1.08,-123.98 404.84 80
5 10/04/2019 06:03:44 0.28,-127.43 0.06,-128.58 130.23 80
6 10/05/2019 05:45:44 0.27,-127.38 1.11,-123.57 434.41 80
7 10/06/2019 18:01:55 -0.28,-127.35 -0.09,-128.13 89.11 80
8 10/07/2019 17:43:55 -0.27,-127.31 -1.20,-123.14 475.65 80
9 10/09/2019 06:00:16 0.28,-127.21 0.19,-127.73 59.39 80
10 10/11/2019 17:58:28 -0.29,-127.12 -0.27,-127.30 19.69 80




NCC Satellite Simultaneous Nadir Overpasses (SNOs) Prediction Service
